Monroe, MI

2:34 AM EDT on September 25, 2017 (GMT -0400)
Custer

Weather History for KTTF - May, 2012

Change the Weather History Date:

Tuesday, May 15, 2012

  Actual Average Record
Temperature  
Mean Temperature 64 °F -  
Max Temperature 82 °F 71 °F 93 °F (1962)
Min Temperature 46 °F 48 °F 34 °F (2016)
Degree Days  
Heating Degree Days 1    
Growing Degree Days 14 (Base 50)    
Moisture  
Dew Point 44 °F    
Average Humidity 53    
Maximum Humidity 100    
Minimum Humidity 20    
Precipitation  
Precipitation 0.00 in - - ()
Sea Level Pressure  
Sea Level Pressure 29.93 in    
Wind  
Wind Speed 3 mph (WSW)    
Max Wind Speed 16 mph    
Max Gust Speed 20 mph    
Visibility 10 miles    
Events      
Averages and records for this station are not official NWS values.
T = Trace of Precipitation, MM = Missing Value Source: NWS Daily Summary

Daily Weather History Graph

Daily Weather History Graph

Search for Another Location

Airport or City:

Trip Planner

Search our weather history database for the weather conditions in past years. The results will help you decide how hot, cold, wet, or windy it might be!

Date:

Astronomy

May. 15, 2012 Rise Set
Actual Time 6:12 AM EDT 8:47 PM EDT
Civil Twilight 5:41 AM EDT 9:19 PM EDT
Nautical Twilight 5:01 AM EDT 9:59 PM EDT
Astronomical Twilight 4:16 AM EDT 10:45 PM EDT
Moon 3:19 AM EDT (5/15) 4:01 PM EDT (5/15)
Length of Visible Light 15h 38m
Length of Day
14h 34m
Waning Crescent, 24% of the Moon is Illuminated
May 15
Waning Crescent
May 20
New
May 28
First Quarter
Jun 4
Full
Jun 11
Last Quarter

Hourly Weather History & Observations

Time (EDT) Temp. Dew Point Humidity Pressure Visibility Wind Dir Wind Speed Gust Speed Precip Events Conditions
12:13 AM 53.6 °F 46.4 °F 77% 30.01 in 10.0 mi Calm Calm - N/A   Clear
12:33 AM 53.6 °F 46.4 °F 77% 30.01 in 10.0 mi Calm Calm - N/A   Clear
12:53 AM 53.6 °F 48.2 °F 82% 30.00 in 10.0 mi Calm Calm - N/A   Clear
1:14 AM 51.8 °F 48.2 °F 88% 30.00 in 10.0 mi Calm Calm - N/A   Clear
1:34 AM 50.0 °F 48.2 °F 94% 30.00 in 10.0 mi Calm Calm - N/A   Clear
1:54 AM 50.0 °F 48.2 °F 94% 29.99 in 10.0 mi Calm Calm - N/A   Clear
2:14 AM 50.0 °F 48.2 °F 94% 29.99 in 10.0 mi Calm Calm - N/A   Clear
2:34 AM 50.0 °F 48.2 °F 94% 29.98 in 10.0 mi Calm Calm - N/A   Clear
2:54 AM 50.0 °F 48.2 °F 94% 29.98 in 10.0 mi Calm Calm - N/A   Clear
3:14 AM 48.2 °F 48.2 °F 100% 29.98 in 10.0 mi Calm Calm - N/A   Clear
3:34 AM 48.2 °F 48.2 °F 100% 29.98 in 10.0 mi Calm Calm - N/A   Clear
3:55 AM 48.2 °F 48.2 °F 100% 29.97 in 10.0 mi Calm Calm - N/A   Clear
4:15 AM 48.2 °F 48.2 °F 100% 29.97 in 10.0 mi Calm Calm - N/A   Clear
4:35 AM 48.2 °F 48.2 °F 100% 29.96 in 10.0 mi Calm Calm - N/A   Clear
4:55 AM 48.2 °F 48.2 °F 100% 29.96 in 10.0 mi Calm Calm - N/A   Clear
5:15 AM 48.2 °F 48.2 °F 100% 29.97 in 10.0 mi West 4.6 mph - N/A   Clear
5:35 AM 48.2 °F 48.2 °F 100% 29.97 in 10.0 mi Calm Calm - N/A   Clear
5:55 AM 48.2 °F 48.2 °F 100% 29.97 in 10.0 mi Calm Calm - N/A   Clear
6:15 AM 46.4 °F 46.4 °F 100% 29.97 in 10.0 mi Calm Calm - N/A   Clear
6:35 AM 46.4 °F 46.4 °F 100% 29.97 in 10.0 mi Calm Calm - N/A   Clear
6:56 AM 48.2 °F 48.2 °F 100% 29.98 in 10.0 mi Calm Calm - N/A   Clear
7:16 AM 50.0 °F 50.0 °F 100% 29.98 in 10.0 mi Calm Calm - N/A   Clear
7:51 AM 53.6 °F 53.6 °F 100% 29.98 in 10.0 mi Calm Calm - N/A   Clear
8:11 AM 57.2 °F 51.8 °F 82% 29.98 in 10.0 mi Calm Calm - N/A   Clear
8:31 AM 60.8 °F 48.2 °F 63% 29.98 in 10.0 mi Calm Calm - N/A   Clear
8:51 AM 62.6 °F 50.0 °F 63% 29.98 in 10.0 mi SW 3.5 mph - N/A   Clear
9:11 AM 66.2 °F 50.0 °F 56% 29.98 in 10.0 mi SW 4.6 mph - N/A   Clear
9:32 AM 69.8 °F 51.8 °F 53% 29.98 in 10.0 mi SW 4.6 mph - N/A   Clear
9:52 AM 71.6 °F 50.0 °F 46% 29.98 in 10.0 mi WSW 6.9 mph - N/A   Clear
10:12 AM 71.6 °F 50.0 °F 46% 29.97 in 10.0 mi SW 8.1 mph - N/A   Clear
10:32 AM 73.4 °F 48.2 °F 41% 29.98 in 10.0 mi West 9.2 mph - N/A   Clear
10:52 AM 73.4 °F 44.6 °F 36% 29.97 in 10.0 mi WSW 8.1 mph - N/A   Clear
11:12 AM 75.2 °F 42.8 °F 31% 29.97 in 10.0 mi West 5.8 mph - N/A   Clear
11:32 AM 75.2 °F 41.0 °F 29% 29.97 in 10.0 mi SW 9.2 mph - N/A   Clear
11:52 AM 75.2 °F 39.2 °F 27% 29.96 in 10.0 mi WSW 8.1 mph - N/A   Clear
12:13 PM 77.0 °F 37.4 °F 24% 29.96 in 10.0 mi WSW 8.1 mph - N/A   Clear
12:33 PM 77.0 °F 35.6 °F 22% 29.95 in 10.0 mi SW 4.6 mph - N/A   Clear
12:53 PM 78.8 °F 35.6 °F 21% 29.94 in 10.0 mi WSW 4.6 mph 17.3 mph N/A   Clear
1:13 PM 78.8 °F 37.4 °F 23% 29.94 in 10.0 mi West 6.9 mph 10.4 mph N/A   Clear
1:33 PM 80.6 °F 37.4 °F 21% 29.93 in 10.0 mi WSW 9.2 mph 18.4 mph N/A   Clear
1:53 PM 80.6 °F 37.4 °F 21% 29.92 in 10.0 mi West 8.1 mph 16.1 mph N/A   Clear
2:13 PM 80.6 °F 37.4 °F 21% 29.91 in 10.0 mi West 10.4 mph 19.6 mph N/A   Clear
2:33 PM 80.6 °F 37.4 °F 21% 29.90 in 10.0 mi WNW 6.9 mph 11.5 mph N/A   Clear
2:54 PM 82.4 °F 39.2 °F 21% 29.90 in 10.0 mi WNW 9.2 mph - N/A   Clear
3:14 PM 80.6 °F 37.4 °F 21% 29.89 in 10.0 mi SW 8.1 mph 16.1 mph N/A   Clear
3:34 PM 82.4 °F 39.2 °F 21% 29.89 in 10.0 mi West 12.7 mph 17.3 mph N/A   Clear
3:54 PM 82.4 °F 39.2 °F 21% 29.88 in 10.0 mi West 10.4 mph - N/A   Clear
4:14 PM 82.4 °F 37.4 °F 20% 29.88 in 10.0 mi SW 13.8 mph 17.3 mph N/A   Clear
4:34 PM 82.4 °F 39.2 °F 21% 29.87 in 10.0 mi SW 8.1 mph - N/A   Clear
4:54 PM 82.4 °F 37.4 °F 20% 29.87 in 10.0 mi West 16.1 mph - N/A   Clear
5:14 PM 82.4 °F 39.2 °F 21% 29.87 in 10.0 mi West 11.5 mph 16.1 mph N/A   Clear
5:34 PM 82.4 °F 39.2 °F 21% 29.86 in 10.0 mi WSW 5.8 mph - N/A   Clear
5:55 PM 80.6 °F 39.2 °F 23% 29.86 in 10.0 mi SW 11.5 mph - N/A   Clear
6:15 PM 80.6 °F 39.2 °F 23% 29.86 in 10.0 mi WSW 10.4 mph - N/A   Clear
6:35 PM 80.6 °F 39.2 °F 23% 29.85 in 10.0 mi WSW 10.4 mph - N/A   Clear
6:55 PM 80.6 °F 41.0 °F 24% 29.85 in 10.0 mi WSW 9.2 mph - N/A   Clear
7:15 PM 80.6 °F 39.2 °F 23% 29.85 in 10.0 mi WSW 8.1 mph - N/A   Clear
7:35 PM 78.8 °F 42.8 °F 28% 29.85 in 10.0 mi SW 5.8 mph - N/A   Clear
7:55 PM 77.0 °F 42.8 °F 29% 29.85 in 10.0 mi SW 4.6 mph - N/A   Clear
8:15 PM 75.2 °F 42.8 °F 31% 29.85 in 10.0 mi SW 3.5 mph - N/A   Clear
8:36 PM 73.4 °F 42.8 °F 33% 29.85 in 10.0 mi SSW 4.6 mph - N/A   Clear
8:56 PM 71.6 °F 44.6 °F 38% 29.85 in 10.0 mi SSW 3.5 mph - N/A   Clear
9:16 PM 71.6 °F 42.8 °F 35% 29.84 in 10.0 mi Calm Calm - N/A   Clear
9:36 PM 71.6 °F 42.8 °F 35% 29.84 in 10.0 mi Calm Calm - N/A   Clear
10:11 PM 69.8 °F 44.6 °F 40% 29.84 in 10.0 mi SSW 4.6 mph - N/A   Clear
10:31 PM 69.8 °F 41.0 °F 35% 29.84 in 10.0 mi SSW 4.6 mph - N/A   Clear
10:51 PM 69.8 °F 42.8 °F 38% 29.85 in 10.0 mi SSW 4.6 mph - N/A   Clear
11:12 PM 69.8 °F 41.0 °F 35% 29.85 in 10.0 mi SSW 4.6 mph - N/A   Clear
11:32 PM 69.8 °F 39.2 °F 33% 29.85 in 10.0 mi SSW 5.8 mph - N/A   Clear
11:52 PM 69.8 °F 41.0 °F 35% 29.85 in 10.0 mi SW 5.8 mph - N/A   Clear